Oxford, NC

1:53 PM EST on November 22, 2019 (GMT -0500)
Henderson-Oxford

Weather History for KHNZ - September, 2019

Change the Weather History Date:

Friday, September 13, 2019

  Actual Average (KTDF) Record (KTDF)
Temperature  
Mean Temperature 72 °F -  
Max Temperature 77 °F 82 °F 95 °F (1983)
Min Temperature 67 °F 56 °F 41 °F (1968)
Cooling Degree Days 7    
Growing Degree Days 22 (Base 50)    
Moisture  
Dew Point 67 °F    
Average Humidity 86    
Maximum Humidity 96    
Minimum Humidity 73    
Precipitation  
Precipitation 0.00 in - - ()
Sea Level Pressure  
Sea Level Pressure 30.24 in    
Wind  
Wind Speed 4 mph (NE)    
Max Wind Speed 14 mph    
Max Gust Speed 21 mph    
Visibility 9 miles    
Events      
Averages and records for this station are not official NWS values.
T = Trace of Precipitation, MM = Missing Value Source: NWS Daily Summary

Daily Weather History Graph

Daily Weather History Graph

Search for Another Location

Airport or City:

Astronomy

Sep. 13, 2019 Rise Set
Actual Time 6:54 AM EDT 7:24 PM EDT
Civil Twilight 6:28 AM EDT 7:50 PM EDT
Nautical Twilight 5:58 AM EDT 8:21 PM EDT
Astronomical Twilight 5:27 AM EDT 8:52 PM EDT
Moon 7:35 PM EDT (9/13) 6:12 AM EDT (9/13)
Length of Visible Light 13h 21m
Length of Day
12h 30m
Full, 100% of the Moon is Illuminated
Sep 13
Full
Sep 14
Full
Sep 21
Last Quarter
Sep 28
New
Oct 5
First Quarter

Hourly Weather History & Observations

Time (EDT) Temp. Dew Point Humidity Pressure Visibility Wind Dir Wind Speed Gust Speed Precip Events Conditions
12:15 AM 74.1 °F 68.9 °F 84% 30.11 in 10.0 mi SW 4.6 mph - N/A   Clear
12:55 AM 73.4 °F 68.7 °F 85% 30.11 in 10.0 mi WSW 3.5 mph - N/A   Clear
1:15 AM 73.0 °F 68.2 °F 85% 30.12 in 10.0 mi Calm Calm - N/A   Clear
1:35 AM 74.5 °F 66.7 °F 77% 30.13 in 10.0 mi Calm Calm - N/A   Clear
1:55 AM 73.4 °F 66.4 °F 79% 30.13 in 10.0 mi Calm Calm - N/A   Clear
2:15 AM 73.2 °F 66.4 °F 79% 30.13 in 10.0 mi North 3.5 mph - N/A   Scattered Clouds
2:35 AM 72.3 °F 66.4 °F 82% 30.13 in 10.0 mi North 5.8 mph - N/A   Scattered Clouds
2:55 AM 71.6 °F 66.7 °F 85% 30.13 in 10.0 mi NNE 4.6 mph - N/A   Clear
3:15 AM 71.6 °F 68.0 °F 88% 30.13 in 10.0 mi NE 5.8 mph - N/A   Clear
3:35 AM 71.4 °F 68.5 °F 91% 30.13 in 10.0 mi NNE 4.6 mph - N/A   Clear
3:55 AM 70.5 °F 68.4 °F 93% 30.14 in 10.0 mi Calm Calm - N/A   Clear
4:15 AM 69.8 °F 68.4 °F 95% 30.14 in 7.0 mi East 3.5 mph - N/A   Clear
4:35 AM 69.6 °F 68.2 °F 95% 30.15 in 7.0 mi Calm Calm - N/A   Clear
4:55 AM 70.7 °F 68.2 °F 92% 30.16 in 10.0 mi NE 4.6 mph - N/A   Scattered Clouds
5:55 AM 69.8 °F 67.1 °F 91% 30.19 in 10.0 mi Calm Calm - N/A   Clear
6:15 AM 68.4 °F 66.2 °F 93% 30.19 in 10.0 mi Calm Calm - N/A   Clear
6:35 AM 69.3 °F 67.1 °F 93% 30.20 in 10.0 mi NNE 3.5 mph - N/A   Clear
6:55 AM 67.5 °F 66.2 °F 96% 30.20 in 10.0 mi NNE 4.6 mph - N/A   Clear
7:15 AM 68.4 °F 66.2 °F 93% 30.21 in 10.0 mi NE 3.5 mph - N/A   Clear
7:35 AM 68.4 °F 66.2 °F 93% 30.22 in 10.0 mi NNE 6.9 mph - N/A   Clear
7:55 AM 68.9 °F 66.2 °F 91% 30.22 in 10.0 mi NNE 6.9 mph - N/A   Clear
8:15 AM 69.8 °F 66.6 °F 89% 30.23 in 10.0 mi NE 5.8 mph - N/A   Clear
8:35 AM 70.9 °F 66.6 °F 86% 30.24 in 10.0 mi NE 6.9 mph - N/A   Clear
8:55 AM 71.6 °F 67.3 °F 86% 30.24 in 10.0 mi ENE 8.1 mph - N/A   Mostly Cloudy
9:15 AM 72.1 °F 67.8 °F 86% 30.25 in 10.0 mi ENE 8.1 mph - N/A   Overcast
9:35 AM 72.7 °F 68.0 °F 85% 30.26 in 10.0 mi ENE 8.1 mph - N/A   Overcast
9:55 AM 72.9 °F 68.0 °F 85% 30.27 in 10.0 mi ENE 6.9 mph 16.1 mph N/A   Overcast
10:15 AM 73.4 °F 68.2 °F 84% 30.27 in 10.0 mi East 8.1 mph - N/A   Overcast
10:35 AM 73.4 °F 68.4 °F 84% 30.27 in 10.0 mi ENE 10.4 mph - N/A   Overcast
10:55 AM 73.4 °F 68.5 °F 85% 30.27 in 10.0 mi ENE 9.2 mph - N/A   Overcast
11:15 AM 73.8 °F 68.7 °F 84% 30.28 in 10.0 mi NE 5.8 mph - N/A   Overcast
11:35 AM 74.8 °F 68.7 °F 81% 30.28 in 10.0 mi ENE 10.4 mph 16.1 mph N/A   Overcast
11:55 AM 77.7 °F 68.5 °F 73% 30.28 in 10.0 mi East 9.2 mph - N/A   Overcast
12:35 PM 75.2 °F 68.7 °F 80% 30.29 in 10.0 mi NE 10.4 mph - N/A   Overcast
12:55 PM 73.4 °F 68.7 °F 85% 30.29 in 10.0 mi ENE 11.5 mph - N/A   Mostly Cloudy
1:15 PM 73.4 °F 69.4 °F 87% 30.29 in 7.0 mi East 10.4 mph 16.1 mph N/A   Overcast
1:35 PM 71.8 °F 69.4 °F 92% 30.29 in 5.0 mi East 11.5 mph - N/A   Overcast
1:55 PM 71.4 °F 69.6 °F 94% 30.29 in 5.0 mi ENE 9.2 mph - N/A   Overcast
2:15 PM 72.1 °F 69.6 °F 92% 30.28 in 10.0 mi East 8.1 mph - N/A   Overcast
2:35 PM 73.6 °F 68.4 °F 84% 30.28 in 10.0 mi ENE 11.5 mph 17.3 mph N/A   Overcast
2:55 PM 74.7 °F 68.0 °F 80% 30.27 in 10.0 mi ENE 13.8 mph - N/A   Overcast
3:15 PM 73.9 °F 68.9 °F 84% 30.27 in 10.0 mi NE 9.2 mph - N/A   Overcast
3:35 PM 73.8 °F 67.6 °F 81% 30.27 in 10.0 mi ENE 9.2 mph - N/A   Mostly Cloudy
3:55 PM 74.5 °F 67.5 °F 79% 30.27 in 10.0 mi ENE 4.6 mph - N/A   Mostly Cloudy
4:15 PM 73.2 °F 67.5 °F 82% 30.27 in 7.0 mi NE 11.5 mph - N/A   Overcast
4:35 PM 73.9 °F 67.1 °F 79% 30.27 in 10.0 mi Calm Calm - N/A   Mostly Cloudy
5:15 PM 73.0 °F 65.8 °F 78% 30.28 in 10.0 mi East 8.1 mph 20.7 mph N/A   Overcast
5:35 PM 72.9 °F 65.5 °F 78% 30.28 in 10.0 mi East 12.7 mph - N/A   Overcast
5:55 PM 72.5 °F 66.0 °F 80% 30.29 in 10.0 mi ENE 3.5 mph - N/A   Overcast
6:15 PM 68.9 °F 66.4 °F 92% 30.29 in 3.0 mi Calm Calm - N/A   Overcast
6:35 PM 68.5 °F 66.9 °F 95% 30.29 in 3.0 mi Calm Calm - N/A   Overcast
6:55 PM 68.9 °F 67.1 °F 94% 30.29 in 10.0 mi Calm Calm - N/A   Overcast
7:15 PM 68.9 °F 66.7 °F 93% 30.28 in 10.0 mi Calm Calm - N/A   Overcast
7:55 PM 69.1 °F 66.6 °F 92% 30.29 in 10.0 mi Calm Calm - N/A   Overcast
8:15 PM 69.3 °F 65.7 °F 88% 30.30 in 10.0 mi Calm Calm - N/A   Overcast
8:35 PM 68.9 °F 64.9 °F 87% 30.32 in 10.0 mi ENE 9.2 mph - N/A   Overcast
8:55 PM 68.4 °F 64.4 °F 87% 30.33 in 10.0 mi Calm Calm - N/A   Scattered Clouds
9:15 PM 67.3 °F 64.0 °F 89% 30.33 in 10.0 mi Calm Calm - N/A   Scattered Clouds
9:35 PM 67.5 °F 63.7 °F 88% 30.34 in 10.0 mi Calm Calm - N/A   Mostly Cloudy
9:55 PM 67.5 °F 63.5 °F 87% 30.34 in 10.0 mi Calm Calm - N/A   Overcast
10:15 PM 67.6 °F 63.5 °F 87% 30.33 in 10.0 mi Calm Calm - N/A   Overcast
10:35 PM 67.6 °F 63.0 °F 85% 30.32 in 10.0 mi Calm Calm - N/A   Overcast
11:15 PM 67.6 °F 63.0 °F 85% 30.32 in 10.0 mi Calm Calm - N/A   Overcast
11:35 PM 67.6 °F 63.0 °F 85% 30.32 in 10.0 mi Calm Calm - N/A   Overcast
11:55 PM 67.5 °F 63.0 °F 85% 30.32 in 10.0 mi Calm Calm - N/A   Overcast